This is the latest recevied weather packets stored in our database for station/object KB2SKP. If no packets are shown the sender has not sent any weather packets the latest 10 day(s).
| Time | Temp. | Humidity | Pressure | Rain* | Wind** | Luminosity | Snow |
|---|---|---|---|---|---|---|---|
| 1777763881 | 12.78° C | 56% | 1007.7 hPa | 0 mm | - | 9 W/m² | - |
| 1777763579 | 13.33° C | 58% | 1008 hPa | 0 mm | - | 8 W/m² | - |
| 1777763277 | 13.33° C | 56% | 1007.8 hPa | 0 mm | - | 10 W/m² | - |
| 1777762975 | 13.33° C | 51% | 1008 hPa | 0 mm | - | 12 W/m² | - |
| 1777762671 | 13.33° C | 52% | 1007.8 hPa | 0 mm | - | 15 W/m² | - |
| 1777762368 | 13.33° C | 53% | 1008 hPa | 0 mm | - | 20 W/m² | - |
| 1777762064 | 13.33° C | 54% | 1007.8 hPa | 0 mm | - | 21 W/m² | - |
| 1777761761 | 13.33° C | 52% | 1007.7 hPa | 0 mm | - | 28 W/m² | - |
| 1777761458 | 13.89° C | 53% | 1008 hPa | 0 mm | - | 39 W/m² | - |
| 1777761156 | 13.89° C | 51% | 1007.8 hPa | 0 mm | - | 32 W/m² | - |
| 1777760854 | 13.89° C | 50% | 1008.1 hPa | 0 mm | - | 27 W/m² | - |
| 1777760550 | 13.89° C | 51% | 1008 hPa | 0 mm | - | 37 W/m² | - |
| 1777760246 | 13.89° C | 52% | 1008.3 hPa | 0 mm | - | 26 W/m² | - |
| 1777759943 | 13.89° C | 50% | 1007.9 hPa | 0 mm | - | 34 W/m² | - |
| 1777759639 | 13.89° C | 49% | 1008 hPa | 0 mm | - | 68 W/m² | - |
| 1777759336 | 13.89° C | 49% | 1007.9 hPa | 0 mm | - | 72 W/m² | - |
| 1777759033 | 13.89° C | 52% | 1008.2 hPa | 0 mm | - | 67 W/m² | - |
| 1777758730 | 13.89° C | 50% | 1007.9 hPa | 0 mm | - | 69 W/m² | - |
| 1777758427 | 13.33° C | 51% | 1008.1 hPa | 0 mm | - | 60 W/m² | - |
| 1777758124 | 13.89° C | 50% | 1008 hPa | 0 mm | - | 48 W/m² | - |
| 1777757821 | 13.89° C | 51% | 1008 hPa | 0 mm | - | 34 W/m² | - |
| 1777757518 | 13.33° C | 51% | 1007.9 hPa | 0 mm | - | 30 W/m² | - |
| 1777757217 | 13.89° C | 50% | 1007.9 hPa | 0 mm | - | 34 W/m² | - |
| 1777756915 | 13.89° C | 50% | 1007.9 hPa | 0 mm | - | 27 W/m² | - |
| 1777756610 | 13.89° C | 51% | 1007.9 hPa | 0 mm | - | 32 W/m² | - |
* Rain latest hour (hover to see other rain measurements)
** Current wind speed in m/s (hover to see current wind gust speed)